When you browse on this site, cookies collect data to enhance your experience and personalize the content and advertising you see.
Visit our Privacy Policy to learn more. By continuing to use the site, you agree to this use of cookies and data.
  • En España
  • Lista de países
  • Para 7 días
  • Temperatura del agua
  • El tiempo en el mapa
  • Informadores
  • user-avatar
    Iniciar sesión

    Tiempo cada hora Troickoe-Bachurino

    Hoy, 6 Junio, Sábado

    Tiempo Temperatura Precipitaciones Viento Presión Humedad
    00:00 +12°C° 0 mm 2 mps 744 mmHg 97%
    01:00 +13°C° 0 mm 2 mps 744 mmHg 98%
    02:00 +12°C° 0 mm 2 mps 745 mmHg 98%
    03:00 +13°C° 0 mm 2 mps 745 mmHg 97%
    04:00 +12°C° 0 mm 3 mps 745 mmHg 97%
    05:00 +13°C° 0 mm 3 mps 745 mmHg 97%
    06:00 +14°C° 0 mm 3 mps 745 mmHg 95%
    07:00 +15°C° 0 mm 4 mps 745 mmHg 93%
    08:00 +18°C° 0 mm 4 mps 745 mmHg 91%
    09:00 +19°C° 0 mm 4 mps 745 mmHg 88%
    10:00 +20°C° 0 mm 4 mps 745 mmHg 85%
    11:00 +21°C° 0 mm 4 mps 745 mmHg 82%
    12:00 +22°C° 0.1 mm 4 mps 745 mmHg 80%
    13:00 +23°C° 0.1 mm 5 mps 745 mmHg 79%
    14:00 +25°C° 0.1 mm 5 mps 745 mmHg 77%
    15:00 +23°C° 0.6 mm 4 mps 745 mmHg 80%
    16:00 +23°C° 0.6 mm 4 mps 745 mmHg 83%
    17:00 +22°C° 0.6 mm 3 mps 745 mmHg 86%
    18:00 +21°C° 0.7 mm 3 mps 745 mmHg 88%
    19:00 +20°C° 0.7 mm 3 mps 745 mmHg 90%
    20:00 +20°C° 0.7 mm 3 mps 746 mmHg 91%
    21:00 +19°C° 0.4 mm 3 mps 746 mmHg 92%
    22:00 +19°C° 0.4 mm 3 mps 746 mmHg 93%
    23:00 +18°C° 0.4 mm 3 mps 746 mmHg 93%

    Mañana, 7 Junio, Domingo

    Tiempo Temperatura Precipitaciones Viento Presión Humedad
    00:00 +18°C° 0 mm 3 mps 746 mmHg 94%
    01:00 +17°C° 0 mm 2 mps 746 mmHg 94%
    02:00 +16°C° 0 mm 2 mps 747 mmHg 95%
    03:00 +17°C° 0 mm 2 mps 747 mmHg 95%
    04:00 +17°C° 0 mm 2 mps 747 mmHg 94%
    05:00 +17°C° 0 mm 2 mps 747 mmHg 94%
    06:00 +20°C° 0 mm 1 mps 747 mmHg 90%
    07:00 +21°C° 0 mm 1 mps 748 mmHg 86%
    08:00 +23°C° 0 mm 1 mps 748 mmHg 83%
    09:00 +24°C° 0.1 mm 1 mps 748 mmHg 79%
    10:00 +25°C° 0.1 mm 2 mps 748 mmHg 75%
    11:00 +26°C° 0.1 mm 2 mps 748 mmHg 72%
    12:00 +26°C° 0 mm 2 mps 748 mmHg 70%
    13:00 +27°C° 0 mm 1 mps 748 mmHg 68%
    14:00 +27°C° 0 mm 1 mps 748 mmHg 66%
    15:00 +27°C° 0 mm 1 mps 748 mmHg 68%
    16:00 +27°C° 0 mm 1 mps 748 mmHg 70%
    17:00 +27°C° 0 mm 1 mps 748 mmHg 71%
    18:00 +25°C° 0 mm 1 mps 748 mmHg 76%
    19:00 +21°C° 0 mm 0 mps 749 mmHg 80%
    20:00 +20°C° 0 mm 0 mps 749 mmHg 84%
    21:00 +19°C° 0 mm 0 mps 749 mmHg 85%
    22:00 +19°C° 0 mm 0 mps 749 mmHg 86%
    23:00 +18°C° 0 mm 0 mps 749 mmHg 87%

    Pasado mañana, 8 Junio, Lunes

    Tiempo Temperatura Precipitaciones Viento Presión Humedad
    00:00 +18°C° 0 mm 0 mps 749 mmHg 88%
    01:00 +17°C° 0 mm 0 mps 749 mmHg 88%
    02:00 +17°C° 0 mm 0 mps 749 mmHg 89%
    03:00 +18°C° 0 mm 0 mps 749 mmHg 89%
    04:00 +18°C° 0 mm 0 mps 749 mmHg 89%
    05:00 +19°C° 0 mm 0 mps 749 mmHg 89%
    06:00 +22°C° 0 mm 1 mps 749 mmHg 85%
    07:00 +24°C° 0 mm 1 mps 750 mmHg 81%
    08:00 +25°C° 0 mm 1 mps 750 mmHg 77%
    09:00 +26°C° 0 mm 1 mps 750 mmHg 74%
    10:00 +27°C° 0 mm 1 mps 749 mmHg 70%
    11:00 +27°C° 0 mm 1 mps 749 mmHg 67%
    12:00 +28°C° 0 mm 1 mps 749 mmHg 65%
    13:00 +28°C° 0 mm 1 mps 749 mmHg 64%
    14:00 +28°C° 0 mm 1 mps 749 mmHg 62%
    15:00 +28°C° 0.1 mm 1 mps 749 mmHg 66%
    16:00 +28°C° 0.1 mm 1 mps 748 mmHg 69%
    17:00 +28°C° 0.1 mm 1 mps 748 mmHg 72%
    18:00 +26°C° 0 mm 2 mps 748 mmHg 77%
    19:00 +24°C° 0 mm 2 mps 748 mmHg 82%
    20:00 +23°C° 0 mm 2 mps 748 mmHg 87%
    21:00 +21°C° 0 mm 2 mps 748 mmHg 90%
    22:00 +20°C° 0 mm 2 mps 748 mmHg 92%
    23:00 +20°C° 0 mm 2 mps 749 mmHg 95%

    9 Junio, Martes

    Tiempo Temperatura Precipitaciones Viento Presión Humedad
    00:00 +19°C° 0 mm 2 mps 749 mmHg 95%
    01:00 +19°C° 0 mm 2 mps 749 mmHg 96%
    02:00 +19°C° 0 mm 2 mps 749 mmHg 96%
    03:00 +19°C° 0 mm 2 mps 749 mmHg 96%
    04:00 +19°C° 0 mm 3 mps 749 mmHg 96%
    05:00 +20°C° 0 mm 3 mps 749 mmHg 95%
    06:00 +21°C° 0 mm 3 mps 749 mmHg 92%
    07:00 +22°C° 0 mm 4 mps 749 mmHg 89%
    08:00 +23°C° 0 mm 4 mps 749 mmHg 85%
    09:00 +25°C° 0 mm 5 mps 749 mmHg 82%
    10:00 +25°C° 0 mm 5 mps 749 mmHg 79%
    11:00 +26°C° 0 mm 5 mps 749 mmHg 76%
    12:00 +26°C° 0.4 mm 5 mps 749 mmHg 76%
    13:00 +26°C° 0.4 mm 5 mps 749 mmHg 76%
    14:00 +27°C° 0.4 mm 5 mps 749 mmHg 76%
    15:00 +26°C° 0.4 mm 4 mps 749 mmHg 78%
    16:00 +26°C° 0.4 mm 4 mps 749 mmHg 80%
    17:00 +26°C° 0.4 mm 3 mps 749 mmHg 82%
    18:00 +24°C° 0 mm 3 mps 749 mmHg 85%
    19:00 +22°C° 0 mm 3 mps 749 mmHg 88%
    20:00 +21°C° 0 mm 3 mps 749 mmHg 91%
    21:00 +20°C° 0 mm 3 mps 749 mmHg 92%
    22:00 +20°C° 0 mm 3 mps 749 mmHg 93%
    23:00 +19°C° 0 mm 3 mps 749 mmHg 95%

    10 Junio, Miércoles

    Tiempo Temperatura Precipitaciones Viento Presión Humedad
    00:00 +19°C° 0 mm 3 mps 749 mmHg 95%
    01:00 +18°C° 0 mm 3 mps 749 mmHg 95%
    02:00 +18°C° 0 mm 2 mps 749 mmHg 95%
    03:00 +18°C° 0 mm 3 mps 749 mmHg 95%
    04:00 +19°C° 0 mm 3 mps 749 mmHg 94%
    05:00 +19°C° 0 mm 3 mps 750 mmHg 94%
    06:00 +20°C° 0 mm 3 mps 750 mmHg 90%
    07:00 +22°C° 0 mm 3 mps 750 mmHg 87%
    08:00 +24°C° 0 mm 3 mps 750 mmHg 84%
    09:00 +25°C° 0.2 mm 4 mps 749 mmHg 81%
    10:00 +26°C° 0.2 mm 4 mps 749 mmHg 78%
    11:00 +26°C° 0.2 mm 4 mps 749 mmHg 75%
    12:00 +27°C° 0.3 mm 4 mps 749 mmHg 75%
    13:00 +27°C° 0.3 mm 4 mps 749 mmHg 75%
    14:00 +27°C° 0.3 mm 4 mps 749 mmHg 74%
    15:00 +27°C° 0.7 mm 4 mps 748 mmHg 77%
    16:00 +26°C° 0.7 mm 3 mps 748 mmHg 79%
    17:00 +26°C° 0.7 mm 3 mps 748 mmHg 82%
    18:00 +25°C° 0.5 mm 3 mps 748 mmHg 85%
    19:00 +24°C° 0.5 mm 2 mps 748 mmHg 87%
    20:00 +21°C° 0.5 mm 2 mps 748 mmHg 90%
    21:00 +21°C° 0 mm 2 mps 748 mmHg 91%
    22:00 +20°C° 0 mm 2 mps 748 mmHg 92%
    23:00 +20°C° 0 mm 2 mps 748 mmHg 93%

    11 Junio, Jueves

    Tiempo Temperatura Precipitaciones Viento Presión Humedad
    00:00 +19°C° 0 mm 2 mps 748 mmHg 93%
    01:00 +19°C° 0 mm 2 mps 748 mmHg 94%
    02:00 +19°C° 0 mm 2 mps 748 mmHg 94%
    03:00 +19°C° 0 mm 2 mps 748 mmHg 94%
    04:00 +20°C° 0 mm 2 mps 748 mmHg 94%
    05:00 +20°C° 0 mm 2 mps 748 mmHg 94%
    06:00 +23°C° 0 mm 2 mps 748 mmHg 89%
    07:00 +24°C° 0 mm 2 mps 748 mmHg 84%
    08:00 +26°C° 0 mm 2 mps 748 mmHg 80%
    09:00 +26°C° 0 mm 2 mps 748 mmHg 77%
    10:00 +27°C° 0 mm 3 mps 747 mmHg 74%
    11:00 +28°C° 0 mm 3 mps 747 mmHg 71%
    12:00 +29°C° 0.2 mm 3 mps 747 mmHg 71%
    13:00 +29°C° 0.2 mm 3 mps 747 mmHg 71%
    14:00 +29°C° 0.2 mm 4 mps 746 mmHg 71%
    15:00 +29°C° 0.5 mm 3 mps 746 mmHg 74%
    16:00 +29°C° 0.5 mm 3 mps 746 mmHg 77%
    17:00 +28°C° 0.5 mm 3 mps 746 mmHg 80%
    18:00 +26°C° 0 mm 3 mps 746 mmHg 82%
    19:00 +25°C° 0 mm 3 mps 746 mmHg 85%
    20:00 +22°C° 0 mm 3 mps 746 mmHg 87%
    21:00 +21°C° 0 mm 3 mps 746 mmHg 89%
    22:00 +21°C° 0 mm 2 mps 746 mmHg 91%
    23:00 +20°C° 0 mm 2 mps 746 mmHg 92%
    Mostrar más